Simultaneous Nadir Overpasses (SNOs) Predictions

Prediction of SNOs between NOAA-20 and AQUA Satellite Orbit:

Table of predicted SNOs for the next 14.0 days since TLE Epoch: 10/11/2019
Index Date (NOAA-20) Time (NOAA-20) Lat,Lon (NOAA-20) SZA (NOAA-20 ) Date (AQUA) Time (AQUA) Lat,Lon (AQUA) SZA (AQUA ) Distance(km) Time Diff (sec)
1 10/12/2019 05:56:02 -75.20, 147.45 75.47 10/12/2019 05:57:08 -75.20, 147.44 75.53 0.39 66
2 10/12/2019 06:46:26 76.13, -42.26 103.49 10/12/2019 06:46:14 76.14, -42.19 103.48 2.09 12
3 10/14/2019 22:12:47 -75.71, -95.21 75.11 10/14/2019 22:13:27 -75.70, -95.28 75.12 2.11 40
4 10/14/2019 23:03:11 76.62, 75.29 103.86 10/14/2019 23:02:33 76.62, 75.28 103.89 0.31 38
5 10/17/2019 14:29:40 -75.84, 20.99 74.33 10/17/2019 14:29:53 -75.85, 21.04 74.35 1.54 13
6 10/17/2019 15:20:05 76.70,-168.63 104.69 10/17/2019 15:19:00 76.71,-168.53 104.72 2.89 65
7 10/20/2019 05:56:04 75.12, -32.78 107.39 10/20/2019 05:57:07 75.13, -32.76 107.32 0.67 63
8 10/20/2019 06:46:23 -76.38, 138.62 74.03 10/20/2019 06:46:10 -76.38, 138.58 74.01 1.19 13
9 10/22/2019 22:12:46 75.77, 84.98 107.57 10/22/2019 22:13:23 75.76, 84.91 107.55 2.34 37
10 10/22/2019 23:03:16 -76.50,-105.15 73.27 10/22/2019 23:02:36 -76.51,-105.10 73.25 1.54 40
11 10/25/2019 14:29:38 75.94,-158.68 108.26 10/25/2019 14:29:48 75.94,-158.67 108.25 0.19 10




NCC Satellite Simultaneous Nadir Overpasses (SNOs) Prediction Service
